Location: Baia de Cri?
(46.1667°N, 22.7167°E)
Time: 21:57:17
(UTC+00:00)

ATLAS CENTAUR R/B - Pass Details

Date: 15 January 2026
Orbit: 312 x 359 km, 64.6° (Epoch: 10 February)

Event Time Altitude Azimuth Distance (km) Brightness Sun altitude
Exits shadow 02:48:48 - 62° (ENE) 1,870 4.8 -33.9°
Enters shadow 03:46:19 -65° 304° (WNW) 12,002 8.1 -23.9°
Maximum altitude 04:21:36 42° 48° (NE) 547 1.5 -17.9°
